Volver al catálogo

STARLINK-34291

ActivoComunicacionesVLEO
NORAD 64359·PAYLOAD·🇺🇸 United States

Lanzado Jun 13, 2025 desde Vandenberg Space Force Base

Loading…

Próximos Pases (próximas 24 horas)

TLE

ActualizadoSource: CelesTrak SupGP

Época: Sep 15, 2026, 03:37 UTC

1 64359C 25126R   26258.15118056 -.00029189  00000+0 -10153-2 0  2583
2 64359  70.0003 275.2237 0003510 266.1996 309.9828 15.29594960    15

Sigue STARLINK-34291 en tiempo real con AllMySat

Download on the App Store